| time (UTC) | temp F | wind direction | speed MPH | gust MPH | rain 1hr in | rain 24hr in | rain mn in | humidity % | barometer mb |
| 20260503183105 | 67 | 359 | 1.0 | 6.0 | 0.00 | 0.00 | 0.00 | 67 | 1021.3 |
| 20260503181608 | 67 | 1 | 1.0 | 4.0 | 0.00 | 0.00 | 0.00 | 67 | 1021.3 |
| 20260503180059 | 68 | 50 | 3.0 | 7.0 | 0.00 | 0.00 | 0.00 | 68 | 1021.4 |
| 20260503180010 | 68 | 94 | 4.0 | 7.0 | 0.00 | 0.00 | 0.00 | 67 | 1021.4 |
| 20260503174616 | 68 | 90 | 3.0 | 8.0 | 0.00 | 0.00 | 0.00 | 65 | 1021.5 |
| 20260503173110 | 70 | 151 | 1.0 | 3.0 | 0.00 | 0.00 | 0.00 | 63 | 1021.5 |
| 20260503171559 | 69 | 349 | 1.0 | 6.0 | 0.00 | 0.00 | 0.00 | 58 | 1021.6 |
| 20260503170113 | 69 | 1 | 2.0 | 6.0 | 0.00 | 0.00 | 0.00 | 59 | 1021.6 |
| 20260503120117 | 63 | 96 | 2.0 | 3.0 | 0.00 | 0.02 | 0.00 | 80 | 1022.6 |
| 20260503081558 | 66 | 41 | 0.0 | 2.0 | 0.00 | 0.37 | 0.00 | 95 | 1018.7 |
| 20260503071604 | 66 | 92 | 1.0 | 3.0 | 0.00 | 0.37 | 0.00 | 96 | 1018.4 |
| 20260503054600 | 66 | 31 | 0.0 | 0.0 | 0.00 | 0.37 | 0.00 | 96 | 1018.4 |
| 20260503053100 | 66 | 31 | 0.0 | 0.0 | 0.00 | 0.37 | 0.00 | 96 | 1018.5 |
| 20260503051559 | 66 | 31 | 0.0 | 0.0 | 0.00 | 0.37 | 0.00 | 96 | 1018.7 |
| 20260503050100 | 66 | 283 | 0.0 | 0.0 | 0.00 | 0.37 | 0.00 | 96 | 1018.8 |
| 20260503050003 | 66 | 283 | 0.0 | 0.0 | 0.00 | 0.37 | 0.00 | 96 | 1018.8 |
| 20260503044613 | 66 | 283 | 0.0 | 0.0 | 0.00 | 0.37 | 0.00 | 96 | 1018.8 |
| 20260503043100 | 66 | 283 | 0.0 | 0.0 | 0.00 | 0.37 | 0.00 | 96 | 1018.9 |
| 20260503041613 | 66 | 283 | 0.0 | 0.0 | 0.00 | 0.37 | 0.00 | 96 | 1018.9 |
| 20260503040059 | 66 | 283 | 0.0 | 0.0 | 0.00 | 0.37 | 0.00 | 96 | 1018.8 |
| 20260503040008 | 66 | 282 | 0.0 | 0.0 | 0.00 | 0.37 | 0.00 | 96 | 1018.8 |
| 20260503034601 | 66 | 280 | 0.0 | 0.0 | 0.00 | 0.37 | 0.00 | 96 | 1018.8 |
| 20260503033117 | 66 | 280 | 0.0 | 0.0 | 0.00 | 0.37 | 0.00 | 96 | 1018.8 |
| 20260503031559 | 66 | 280 | 0.0 | 0.0 | 0.00 | 0.37 | 0.00 | 96 | 1018.8 |
| 20260503030108 | 66 | 280 | 0.0 | 0.0 | 0.00 | 0.37 | 0.00 | 96 | 1018.8 |
| 20260503030004 | 66 | 280 | 0.0 | 0.0 | 0.00 | 0.37 | 0.00 | 96 | 1018.8 |
| 20260503024604 | 66 | 280 | 0.0 | 0.0 | 0.00 | 0.37 | 0.37 | 96 | 1019.1 |
| 20260503023100 | 65 | 280 | 0.0 | 0.0 | 0.00 | 0.37 | 0.37 | 96 | 1019.0 |
| 20260503021611 | 65 | 280 | 0.0 | 0.0 | 0.00 | 0.37 | 0.37 | 96 | 1018.8 |
| 20260503020109 | 65 | 280 | 0.0 | 0.0 | 0.00 | 0.37 | 0.37 | 96 | 1018.8 |
| 20260503020003 | 65 | 280 | 0.0 | 0.0 | 0.00 | 0.37 | 0.37 | 96 | 1018.8 |
| 20260503014559 | 65 | 280 | 0.0 | 0.0 | 0.00 | 0.37 | 0.37 | 96 | 1018.8 |
| 20260503013101 | 65 | 280 | 0.0 | 0.0 | 0.00 | 0.37 | 0.37 | 96 | 1018.6 |
| 20260503011609 | 65 | 280 | 0.0 | 0.0 | 0.00 | 0.37 | 0.37 | 95 | 1018.5 |
| 20260503010105 | 65 | 280 | 0.0 | 0.0 | 0.00 | 0.37 | 0.37 | 95 | 1018.4 |
| 20260503010003 | 65 | 280 | 0.0 | 0.0 | 0.00 | 0.37 | 0.37 | 95 | 1018.3 |
| 20260503004603 | 65 | 280 | 0.0 | 0.0 | 0.00 | 0.37 | 0.37 | 95 | 1018.2 |
| 20260503003117 | 65 | 280 | 0.0 | 0.0 | 0.00 | 0.37 | 0.37 | 95 | 1018.0 |
| 20260503001606 | 65 | 280 | 0.0 | 0.0 | 0.00 | 0.37 | 0.37 | 95 | 1017.8 |
| 20260503000100 | 66 | 280 | 0.0 | 0.0 | 0.00 | 0.37 | 0.37 | 95 | 1017.8 |
| 20260503000008 | 66 | 280 | 0.0 | 0.0 | 0.00 | 0.37 | 0.37 | 95 | 1017.7 |
| 20260502234602 | 66 | 280 | 0.0 | 0.0 | 0.00 | 0.37 | 0.37 | 95 | 1017.6 |
| 20260502233100 | 66 | 280 | 0.0 | 1.0 | 0.00 | 0.37 | 0.37 | 95 | 1017.1 |
| 20260502231601 | 66 | 280 | 0.0 | 2.0 | 0.00 | 0.37 | 0.37 | 95 | 1017.0 |
| 20260502230100 | 66 | 280 | 0.0 | 2.0 | 0.00 | 0.37 | 0.37 | 95 | 1016.8 |
| 20260502230003 | 66 | 280 | 0.0 | 2.0 | 0.00 | 0.37 | 0.37 | 95 | 1016.8 |
| 20260502224600 | 67 | 280 | 0.0 | 2.0 | 0.00 | 0.37 | 0.37 | 95 | 1016.5 |
| 20260502223100 | 67 | 281 | 1.0 | 3.0 | 0.00 | 0.37 | 0.37 | 94 | 1016.4 |
| 20260502221605 | 67 | 59 | 0.0 | 3.0 | 0.00 | 0.37 | 0.37 | 94 | 1016.2 |
| 20260502220144 | 67 | 136 | 0.0 | 2.0 | 0.00 | 0.37 | 0.37 | 94 | 1016.0 |
| 20260502220010 | 67 | 136 | 0.0 | 2.0 | 0.00 | 0.37 | 0.37 | 94 | 1016.1 |
| 20260502214603 | 67 | 115 | 1.0 | 3.0 | 0.00 | 0.37 | 0.37 | 94 | 1016.0 |
| 20260502213107 | 67 | 125 | 0.0 | 2.0 | 0.00 | 0.37 | 0.37 | 94 | 1015.6 |
| 20260502211600 | 68 | 125 | 0.0 | 1.0 | 0.00 | 0.37 | 0.37 | 94 | 1015.9 |
| 20260502210108 | 68 | 125 | 2.0 | 4.0 | 0.00 | 0.37 | 0.37 | 94 | 1015.5 |
| 20260502210002 | 68 | 174 | 2.0 | 4.0 | 0.00 | 0.37 | 0.37 | 94 | 1015.7 |
| 20260502204610 | 68 | 197 | 2.0 | 4.0 | 0.00 | 0.37 | 0.37 | 94 | 1016.0 |
| 20260502203117 | 68 | 231 | 3.0 | 5.0 | 0.00 | 0.37 | 0.37 | 94 | 1015.7 |
| 20260502201559 | 68 | 271 | 2.0 | 4.0 | 0.00 | 0.37 | 0.37 | 94 | 1015.6 |
| 20260502200100 | 69 | 226 | 1.0 | 3.0 | 0.00 | 0.37 | 0.37 | 93 | 1015.3 |
| 20260502200003 | 69 | 226 | 2.0 | 3.0 | 0.00 | 0.37 | 0.37 | 93 | 1015.4 |
| 20260502194603 | 69 | 276 | 0.0 | 2.0 | 0.00 | 0.37 | 0.37 | 93 | 1015.0 |
| 20260502193100 | 69 | 276 | 0.0 | 3.0 | 0.00 | 0.37 | 0.37 | 93 | 1015.0 |
| 20260502191618 | 69 | 274 | 1.0 | 2.0 | 0.00 | 0.37 | 0.37 | 93 | 1014.7 |
| 20260502190111 | 70 | 53 | 0.0 | 0.0 | 0.00 | 0.37 | 0.37 | 93 | 1014.3 |
| 20260502190004 | 70 | 53 | 0.0 | 0.0 | 0.00 | 0.37 | 0.37 | 93 | 1014.4 |
| 20260502184559 | 70 | 53 | 0.0 | 2.0 | 0.00 | 0.37 | 0.37 | 93 | 1014.1 |